Wind_Speed
23 23 24 25 27 28 27 25 25 24 24 25 25 25 26 26 27 28 26 24 23 22 22 22 22 21 20 20 19 18 17 17 16 16 15 15 15 14 14 13 12 11 10 10 9 9 8 7 7
23 23 25 26 27 28 27 27 26 26 27 26 27 27 26 27 29 28 26 25 25 24 24 23 23 23 23 22 21 20 19 18 18 17 17 17 16 15 15 14 13 13 12 11 10 10 9 9 8
22 23 24 26 26 27 28 28 28 28 28 28 28 28 27 28 29 28 27 27 26 26 26 25 25 24 24 24 23 22 21 20 19 19 19 18 17 16 16 16 15 14 13 13 12 11 11 10 10
22 23 24 25 25 26 27 28 29 29 29 29 30 30 29 29 29 28 28 29 28 27 27 27 26 26 26 26 25 24 23 22 21 21 20 20 19 18 17 17 16 15 15 14 13 13 12 11 11
22 23 24 24 25 26 27 29 29 30 30 30 32 32 31 31 30 29 29 29 29 29 28 28 27 27 27 27 27 26 25 23 22 22 22 22 21 20 19 18 18 17 16 15 14 14 13 13 12
22 22 23 24 25 25 27 28 30 30 31 31 32 32 33 33 32 31 31 30 30 30 29 27 28 28 28 28 28 27 26 25 24 24 24 23 23 21 21 20 19 18 17 16 16 15 15 14 13
21 22 23 23 24 25 26 28 29 31 32 32 32 32 33 34 33 33 32 32 31 30 30 29 28 28 28 28 28 28 27 27 26 25 25 24 24 23 22 21 21 20 19 18 17 17 16 16 15
21 22 22 22 23 25 26 28 29 31 32 33 33 33 34 34 34 34 33 33 32 31 30 30 29 28 28 28 29 29 28 28 27 26 26 26 25 24 24 23 22 21 20 19 18 18 17 17 16
21 22 23 23 23 24 25 28 28 30 32 33 33 33 34 34 34 34 33 33 32 32 31 30 30 29 28 29 29 29 29 28 27 28 28 26 26 25 25 24 24 23 21 21 20 20 19 18 18
21 22 23 23 23 24 25 27 29 28 30 31 32 33 34 34 35 34 34 33 33 32 31 31 31 30 29 30 30 30 29 28 28 28 28 28 27 26 26 26 25 24 23 22 22 21 21 20 19
22 22 22 22 23 25 26 27 29 29 29 30 31 33 34 34 35 35 35 34 34 33 32 31 30 31 31 30 31 31 31 30 29 28 28 28 27 27 27 27 27 26 25 24 23 23 23 22 21
22 22 22 22 23 24 26 26 28 30 29 30 31 32 34 34 34 35 35 35 35 35 34 32 32 31 32 31 31 32 31 30 30 30 29 29 28 28 28 28 28 27 27 26 25 25 24 24 23
23 22 22 23 24 25 26 26 27 28 29 29 30 32 33 34 35 35 35 36 36 36 35 35 34 33 33 33 32 31 31 31 31 30 30 29 29 29 28 29 29 29 28 27 27 26 25 26 25
24 23 23 23 24 25 26 26 27 26 28 29 29 30 32 33 35 35 35 36 36 37 36 36 36 35 34 34 33 32 31 31 32 32 31 31 30 29 29 29 29 29 29 29 28 28 27 27 27
24 24 23 24 25 26 27 26 26 26 28 29 30 29 30 32 33 35 35 36 36 37 37 37 37 37 37 35 35 33 32 31 31 32 32 32 31 31 30 30 29 29 30 30 29 29 29 28 28
24 24 24 24 26 26 27 25 25 27 28 29 30 30 29 30 32 34 35 36 37 38 38 38 38 38 38 38 36 35 34 32 32 32 31 31 31 32 32 31 31 30 30 31 31 30 30 30 29
25 24 24 24 25 27 27 26 25 27 28 29 29 30 30 30 31 32 33 34 35 36 37 38 38 38 38 39 38 37 35 35 33 33 31 32 32 33 33 33 32 31 31 31 32 32 32 32 32
25 25 24 25 25 27 27 26 26 26 27 28 28 29 30 30 30 31 33 34 34 35 37 38 38 38 39 39 39 38 37 36 35 35 33 33 33 33 33 34 34 32 32 31 31 32 34 34 34
25 25 25 25 25 27 27 26 25 26 27 27 27 28 29 30 30 30 32 34 34 34 36 38 39 39 39 40 39 38 38 38 37 36 34 33 33 34 34 34 34 33 33 33 33 32 34 35 35
25 25 25 25 26 27 27 25 25 25 25 25 25 26 27 28 30 31 31 33 33 34 35 37 37 38 37 38 39 39 38 39 37 36 36 35 34 34 35 35 36 36 36 35 35 35 34 35 36
26 25 25 26 26 26 27 25 23 24 24 24 24 24 26 27 28 29 31 33 33 34 35 35 35 37 38 38 39 39 39 39 38 37 38 37 37 37 37 37 37 38 37 37 37 37 36 36 37
26 26 26 27 27 26 26 27 22 23 22 23 23 23 24 25 26 28 30 31 32 34 36 35 35 36 36 37 38 39 40 39 39 39 39 38 37 37 37 36 37 38 38 38 38 38 38 38 38
27 26 27 28 28 27 25 27 24 23 22 22 22 22 22 23 24 25 27 29 31 33 36 36 35 36 36 37 38 39 40 39 38 39 40 39 39 38 38 37 37 37 38 39 39 40 40 39 40
27 26 27 27 27 27 25 27 25 23 22 22 21 21 22 22 23 24 25 27 29 32 34 35 35 35 37 38 39 39 40 40 39 38 38 39 39 39 39 38 38 38 38 40 40 40 41 41 41
29 28 28 28 27 26 25 26 24 22 22 22 21 21 22 23 24 24 25 26 27 29 32 34 34 34 35 36 37 38 39 40 41 40 39 39 39 40 40 40 39 39 39 40 40 41 41 42 41
30 30 29 29 29 28 26 25 23 23 23 22 22 22 22 22 23 24 25 25 26 29 31 32 32 32 33 35 35 37 39 40 40 39 39 39 39 40 41 41 41 41 41 41 42 42 42 42 42
31 30 30 31 30 30 28 26 25 24 23 23 22 22 22 22 22 23 23 24 26 28 30 31 31 32 34 34 35 35 37 38 39 39 40 39 39 41 42 43 42 43 42 42 43 42 42 43 44
32 31 31 31 31 31 29 27 25 23 23 24 23 22 22 21 22 22 23 24 26 27 29 30 30 31 32 33 35 36 36 38 40 40 39 39 40 40 42 43 43 43 42 42 43 43 43 43 44
32 32 32 32 32 32 31 28 26 25 24 24 24 24 23 23 23 22 23 24 26 27 28 30 31 31 32 34 35 35 36 37 38 39 39 40 41 40 41 42 43 42 42 43 44 44 44 45 45
34 33 32 32 32 32 32 29 27 27 26 25 25 24 24 24 24 24 24 25 27 28 29 31 32 32 33 35 36 36 37 38 38 39 39 40 41 41 42 43 44 43 43 44 45 45 45 46 46
Wind_Direction
265 263 260 258 257 257 258 257 256 253 253 252 251 249 248 249 249 250 250 250 249 247 246 244 243 242 242 242 241 238 238 238 238 237 237 234 233 232 231 228 227 226 225 225 227 227 227 229 229
267 264 261 259 258 258 258 257 256 255 254 253 251 249 248 249 250 252 252 250 249 248 247 245 244 243 243 243 240 239 240 240 239 238 237 236 234 234 232 231 230 231 230 230 231 233 233 233 234
267 264 262 261 261 261 259 257 255 253 254 253 252 251 250 251 252 253 253 252 249 248 247 246 245 244 244 244 243 243 242 241 240 238 237 237 236 235 233 233 233 233 234 233 234 236 236 235 237
268 266 265 264 264 262 259 257 256 255 253 252 252 252 250 251 252 252 252 251 250 249 247 246 245 245 245 245 246 244 242 241 241 239 238 237 236 236 235 235 236 235 235 235 236 237 237 238 240
270 267 267 266 266 262 259 256 254 254 254 253 253 253 251 249 250 250 251 252 251 250 248 245 244 245 245 245 245 243 242 241 240 239 238 237 236 235 237 236 235 237 237 236 238 239 239 240 242
273 271 270 269 266 263 259 257 255 255 254 253 253 253 252 249 249 249 250 252 251 250 249 246 245 244 245 245 244 242 241 241 241 239 238 239 237 236 237 236 235 238 239 239 238 239 239 240 243
276 274 274 274 268 263 260 258 257 255 254 254 253 251 250 250 248 248 249 250 250 248 247 246 246 245 244 244 243 242 241 241 241 240 239 240 239 237 236 236 236 238 239 241 239 238 240 242 245
279 277 276 275 271 266 263 261 260 258 256 255 254 251 248 249 247 246 247 248 248 247 246 245 245 245 244 242 241 240 241 241 241 240 240 240 239 238 237 236 236 237 238 240 242 240 241 243 246
281 278 278 277 275 271 267 264 264 261 257 256 255 253 250 249 248 246 246 247 247 246 245 244 244 244 244 241 240 240 241 241 241 242 241 240 239 240 239 239 238 237 238 240 243 242 241 244 247
282 281 281 279 277 275 272 269 266 265 260 257 255 252 251 249 248 246 245 246 245 245 245 245 246 244 243 241 239 240 242 242 242 243 242 241 240 240 240 240 239 239 240 241 243 243 242 245 249
283 283 282 281 279 278 277 275 272 268 264 260 256 253 252 250 248 246 245 244 244 244 244 244 245 244 242 240 239 240 242 242 243 243 243 242 241 242 241 240 240 240 240 241 243 244 245 247 249
285 286 284 282 280 280 280 280 277 272 267 262 258 254 253 250 248 246 244 243 242 242 243 242 243 243 241 240 240 240 241 243 244 244 244 243 243 243 242 241 240 240 240 241 243 246 248 250 251
285 286 286 283 281 282 283 282 279 276 269 264 260 257 255 251 248 246 245 243 242 242 241 241 242 242 241 239 240 241 242 244 245 244 244 243 243 244 244 243 242 242 241 242 244 246 249 251 253
286 286 285 283 283 283 284 281 278 276 271 266 262 260 256 253 248 246 245 243 241 241 240 240 241 240 240 239 239 239 241 244 244 244 244 244 243 244 245 245 244 242 242 243 245 247 249 251 253
285 284 284 283 283 284 285 282 279 276 272 268 264 262 259 255 251 248 246 243 241 241 239 238 239 238 239 239 238 237 240 242 244 243 243 243 243 243 244 246 246 244 244 245 246 248 250 251 253
285 285 285 284 283 283 286 284 280 278 273 269 266 264 261 257 252 249 247 243 242 240 238 237 237 237 237 238 238 237 239 242 244 243 243 244 244 245 245 245 247 248 248 248 248 250 251 252 253
285 286 287 286 285 283 286 286 282 278 276 271 267 265 262 257 253 250 247 242 240 239 236 237 236 235 235 236 238 239 240 242 244 245 245 247 247 247 247 246 249 250 251 251 251 251 251 252 253
286 288 288 289 287 285 286 287 284 281 279 274 269 265 263 259 254 251 247 240 239 239 236 236 237 236 236 236 236 238 241 243 245 246 246 248 248 249 250 248 249 251 251 252 255 254 252 252 253
286 288 288 289 289 287 288 288 285 282 280 277 273 269 265 261 256 251 247 241 239 240 236 235 236 237 237 237 238 239 241 242 246 247 246 249 249 249 251 250 249 252 252 253 255 256 256 254 254
284 286 288 289 288 288 288 289 286 283 280 279 277 273 268 263 259 253 247 243 240 239 238 237 237 237 237 239 238 239 240 241 245 248 248 251 250 249 249 251 250 252 253 254 256 257 258 256 255
280 285 287 288 288 288 289 288 287 282 280 279 278 275 270 264 260 255 249 245 242 239 237 238 238 238 238 238 239 240 241 242 244 248 248 249 250 249 249 250 250 251 252 253 255 256 256 257 257
278 281 284 287 288 289 290 290 289 286 281 280 281 278 272 267 263 257 253 249 244 239 237 237 239 239 239 239 240 243 244 244 245 247 247 248 249 249 249 251 250 251 252 253 255 256 256 257 258
276 278 282 285 287 288 289 290 294 290 286 284 283 279 272 269 265 259 255 251 247 243 240 240 241 241 240 241 242 244 244 245 247 249 248 248 248 250 250 251 252 253 254 255 255 256 258 259 260
274 277 280 282 285 287 291 291 294 295 293 289 285 282 278 272 267 260 255 253 250 247 242 241 241 243 242 242 244 244 245 246 248 249 249 248 250 251 251 252 253 254 255 255 256 257 258 259 260
272 275 279 282 284 287 290 291 294 296 296 291 287 285 281 276 271 263 259 256 254 249 245 242 243 243 244 244 246 245 245 247 249 249 250 250 250 251 251 251 253 254 254 255 256 257 258 259 260
272 272 276 281 285 287 288 291 292 293 294 293 289 287 284 278 272 266 262 258 257 253 250 248 246 245 245 245 247 247 245 247 247 248 249 252 252 253 252 252 253 255 255 256 257 259 260 260 261
270 270 273 277 280 283 285 289 291 294 294 293 290 288 288 282 275 267 261 260 259 258 253 252 249 248 247 247 248 250 247 247 246 248 251 252 252 253 252 252 254 255 255 256 258 260 262 263 263
269 270 271 273 278 281 285 289 292 292 292 292 290 288 287 283 277 270 264 263 260 258 254 254 252 251 250 250 252 251 250 249 248 250 253 254 254 254 254 254 256 256 256 258 259 260 262 263 264
267 268 269 270 273 278 283 286 289 290 290 291 291 287 284 283 277 270 267 264 260 258 255 254 254 254 252 251 252 252 251 250 250 253 254 254 255 255 255 256 257 257 257 258 260 261 262 263 264
263 265 265 268 272 275 279 283 284 287 290 290 290 287 283 281 276 270 266 262 260 259 258 257 257 255 254 253 253 255 254 252 253 254 255 255 256 256 257 258 259 258 259 260 261 262 264 264 265
Height
5805 5806 5806 5807 5808 5808 5810 5813 5814 5815 5816 5817 5818 5820 5821 5823 5823 5826 5827 5828 5830 5832 5833 5835 5836 5838 5839 5840 5841 5842 5843 5844 5845 5846 5847 5848 5850 5851 5852 5853 5854 5855 5856 5857 5858 5859 5860 5860 5861
5800 5800 5801 5801 5802 5803 5805 5807 5808 5809 5810 5812 5813 5814 5816 5817 5817 5819 5822 5823 5826 5827 5829 5831 5832 5834 5835 5837 5838 5839 5839 5840 5841 5843 5844 5845 5847 5848 5850 5851 5852 5853 5854 5855 5856 5857 5858 5859 5859
5794 5795 5796 5796 5796 5798 5800 5801 5801 5802 5804 5806 5807 5809 5811 5812 5813 5815 5817 5818 5821 5822 5824 5826 5827 5829 5831 5832 5833 5835 5836 5836 5837 5839 5840 5842 5843 5845 5847 5848 5849 5851 5852 5853 5854 5855 5856 5856 5857
5789 5790 5790 5791 5791 5792 5793 5794 5794 5795 5798 5799 5801 5803 5805 5806 5808 5810 5811 5813 5815 5817 5819 5820 5822 5824 5826 5827 5829 5830 5831 5832 5833 5834 5836 5838 5840 5841 5843 5845 5846 5848 5849 5850 5852 5853 5853 5854 5855
5784 5784 5784 5784 5785 5786 5786 5787 5787 5789 5791 5793 5794 5796 5798 5800 5802 5804 5805 5807 5809 5811 5813 5815 5816 5818 5820 5822 5823 5824 5826 5827 5829 5830 5832 5834 5835 5837 5839 5841 5843 5844 5846 5847 5849 5850 5851 5852 5852
5779 5778 5779 5778 5779 5780 5780 5780 5781 5783 5784 5785 5787 5789 5791 5793 5795 5797 5799 5801 5803 5805 5807 5809 5810 5812 5814 5816 5817 5819 5821 5822 5824 5825 5827 5829 5831 5833 5835 5837 5839 5841 5842 5844 5845 5847 5848 5849 5849
5774 5773 5772 5772 5772 5773 5773 5773 5774 5775 5777 5778 5779 5781 5783 5785 5788 5790 5793 5794 5796 5799 5801 5803 5805 5807 5808 5810 5812 5813 5815 5817 5819 5820 5822 5825 5826 5828 5830 5832 5835 5837 5838 5840 5842 5843 5845 5846 5846
5767 5768 5767 5766 5766 5766 5766 5766 5766 5768 5769 5770 5772 5773 5775 5777 5780 5783 5786 5788 5789 5792 5794 5797 5799 5801 5802 5804 5806 5808 5810 5812 5814 5815 5817 5820 5822 5824 5826 5828 5830 5832 5834 5836 5838 5839 5841 5842 5843
5762 5762 5761 5760 5760 5760 5759 5759 5759 5760 5761 5762 5763 5765 5767 5769 5772 5775 5778 5780 5782 5785 5787 5790 5792 5794 5796 5798 5800 5802 5804 5806 5808 5810 5812 5815 5817 5819 5821 5823 5825 5828 5830 5832 5834 5835 5837 5838 5839
5757 5756 5755 5755 5754 5754 5753 5752 5752 5752 5753 5754 5755 5756 5757 5761 5764 5767 5770 5773 5775 5778 5780 5783 5786 5788 5790 5792 5794 5797 5799 5801 5803 5805 5807 5809 5811 5813 5816 5818 5820 5823 5825 5827 5829 5831 5833 5834 5836
5751 5751 5750 5749 5748 5747 5746 5746 5745 5744 5745 5746 5746 5748 5748 5752 5755 5759 5762 5765 5768 5770 5773 5776 5779 5781 5783 5785 5788 5791 5793 5796 5798 5800 5802 5804 5806 5808 5810 5813 5815 5818 5820 5822 5825 5827 5828 5830 5831
5746 5745 5744 5743 5742 5741 5740 5739 5738 5737 5738 5737 5738 5739 5740 5743 5747 5750 5753 5756 5759 5762 5766 5769 5772 5774 5777 5779 5782 5785 5787 5790 5792 5795 5796 5798 5801 5803 5805 5807 5810 5812 5815 5817 5819 5821 5824 5825 5827
5740 5740 5738 5737 5736 5734 5733 5732 5731 5730 5730 5729 5729 5730 5732 5735 5737 5741 5744 5747 5750 5754 5758 5761 5764 5767 5769 5772 5775 5778 5781 5784 5786 5788 5791 5793 5795 5798 5800 5802 5804 5807 5809 5812 5814 5816 5818 5820 5821
5735 5734 5732 5731 5730 5728 5726 5725 5724 5724 5722 5721 5721 5722 5724 5726 5728 5731 5734 5738 5741 5745 5749 5753 5756 5759 5762 5765 5768 5771 5775 5777 5780 5782 5785 5787 5789 5792 5794 5796 5798 5801 5803 5806 5808 5810 5812 5814 5816
5729 5728 5727 5725 5724 5722 5720 5719 5718 5717 5715 5714 5714 5715 5716 5717 5719 5722 5725 5728 5732 5736 5740 5744 5747 5751 5754 5757 5760 5764 5768 5771 5773 5775 5778 5780 5783 5786 5788 5790 5793 5795 5797 5799 5802 5804 5806 5808 5810
5723 5722 5720 5720 5718 5716 5715 5714 5712 5709 5707 5707 5707 5707 5708 5709 5710 5713 5715 5719 5722 5726 5730 5734 5738 5742 5745 5749 5752 5756 5760 5764 5766 5769 5771 5774 5776 5779 5781 5784 5786 5789 5791 5793 5795 5797 5800 5801 5803
5717 5716 5715 5714 5712 5709 5708 5707 5706 5703 5701 5700 5700 5699 5700 5701 5702 5704 5706 5709 5713 5717 5721 5725 5729 5734 5737 5741 5745 5749 5753 5756 5759 5762 5764 5767 5769 5772 5775 5777 5780 5782 5784 5787 5788 5790 5792 5794 5796
5712 5710 5709 5707 5706 5703 5701 5700 5699 5697 5694 5693 5693 5692 5692 5693 5695 5696 5698 5701 5704 5708 5712 5716 5721 5725 5729 5733 5737 5741 5745 5749 5752 5754 5757 5760 5762 5765 5768 5770 5773 5775 5778 5780 5781 5783 5785 5786 5788
5706 5704 5703 5702 5699 5697 5695 5694 5692 5690 5689 5687 5686 5685 5685 5686 5687 5688 5690 5693 5696 5700 5704 5708 5713 5717 5721 5725 5729 5733 5737 5741 5744 5746 5749 5753 5755 5758 5760 5763 5766 5768 5771 5773 5774 5776 5777 5779 5780
5700 5698 5697 5696 5694 5691 5689 5688 5686 5684 5683 5681 5680 5679 5679 5679 5679 5681 5683 5686 5689 5692 5696 5700 5704 5708 5713 5717 5721 5725 5729 5733 5736 5738 5742 5745 5747 5750 5753 5756 5758 5761 5763 5765 5767 5768 5769 5771 5773
5693 5693 5692 5690 5689 5686 5683 5683 5681 5679 5677 5675 5674 5673 5672 5672 5673 5674 5676 5679 5682 5685 5689 5692 5696 5700 5705 5708 5713 5717 5721 5724 5727 5731 5733 5736 5739 5742 5745 5747 5750 5752 5754 5756 5758 5760 5762 5763 5764
5687 5687 5686 5684 5682 5680 5678 5675 5677 5674 5672 5670 5669 5667 5667 5667 5668 5669 5670 5672 5675 5678 5681 5684 5688 5692 5696 5700 5704 5708 5712 5715 5719 5722 5724 5727 5730 5733 5736 5738 5740 5743 5745 5747 5749 5751 5753 5754 5756
5681 5681 5680 5678 5676 5674 5673 5670 5671 5669 5667 5665 5664 5663 5662 5662 5662 5663 5664 5666 5668 5670 5673 5676 5680 5684 5688 5692 5696 5699 5703 5706 5709 5712 5715 5718 5721 5724 5727 5730 5732 5734 5736 5738 5740 5742 5743 5745 5746
5675 5674 5673 5671 5670 5669 5669 5665 5665 5663 5662 5660 5659 5658 5657 5657 5657 5658 5659 5660 5662 5664 5666 5669 5673 5676 5680 5684 5687 5690 5694 5697 5700 5703 5706 5709 5712 5714 5717 5720 5723 5725 5727 5729 5731 5732 5734 5735 5736
5668 5668 5667 5665 5663 5663 5663 5659 5660 5659 5657 5655 5654 5653 5652 5652 5651 5652 5653 5654 5656 5658 5660 5662 5665 5669 5672 5675 5678 5681 5685 5688 5690 5693 5696 5699 5702 5705 5707 5710 5713 5715 5717 5719 5721 5722 5724 5725 5726
5661 5661 5661 5659 5658 5657 5657 5654 5656 5655 5652 5650 5649 5648 5647 5646 5646 5646 5647 5648 5650 5652 5653 5655 5658 5661 5664 5667 5670 5672 5675 5678 5681 5683 5685 5688 5691 5694 5697 5700 5702 5705 5707 5709 5710 5712 5713 5715 5716
5653 5654 5655 5653 5652 5651 5651 5651 5651 5649 5647 5645 5644 5643 5642 5641 5641 5641 5641 5643 5644 5645 5647 5649 5652 5654 5657 5659 5661 5663 5666 5668 5671 5673 5675 5677 5680 5682 5685 5689 5691 5694 5696 5698 5700 5701 5703 5704 5705
5646 5647 5647 5646 5645 5644 5645 5645 5645 5644 5642 5641 5639 5638 5637 5636 5635 5635 5636 5637 5638 5639 5641 5642 5644 5646 5648 5650 5652 5654 5656 5659 5661 5664 5665 5668 5670 5672 5675 5677 5680 5682 5685 5687 5689 5690 5691 5693 5694
5639 5639 5639 5639 5639 5639 5638 5642 5640 5638 5637 5636 5634 5633 5632 5631 5630 5630 5630 5631 5632 5632 5634 5635 5636 5638 5640 5642 5644 5645 5647 5649 5652 5654 5656 5658 5660 5662 5664 5666 5669 5671 5673 5675 5677 5679 5680 5681 5682
5629 5630 5631 5632 5632 5632 5632 5636 5634 5632 5631 5629 5628 5627 5626 5625 5624 5624 5624 5624 5625 5626 5627 5628 5629 5630 5632 5633 5635 5637 5638 5640 5642 5644 5646 5648 5649 5651 5653 5655 5657 5659 5662 5664 5666 5667 5668 5669 5670